KL7GG Weather Reports


Display with metric or nautical units.
time (UTC)temp
F
wind
direction
speed
MPH
gust
MPH
rain 1hr
in
rain 24hr
in
rain mn
in
humidity
%
barometer
mb
20260906165640 46 0 0.0 0.0 0.00 0.00 0.00 94 1012.8
20260906164136 46 0 0.0 0.0 0.00 0.00 0.00 94 1012.8
20260906162632 46 0 0.0 0.0 0.00 0.00 0.00 94 1012.9
20260906161126 45 0 0.0 0.0 0.00 0.00 0.00 94 1012.9
20260906155622 44 0 0.0 0.0 0.00 0.00 0.00 93 1013.0
20260906154116 44 0 0.0 0.0 0.00 0.00 0.00 93 1013.0
20260906152612 44 0 0.0 0.0 0.00 0.00 0.00 93 1013.0
20260906151108 45 0 0.0 0.0 0.00 0.00 0.00 93 1013.2
20260906145604 45 0 0.0 0.0 0.00 0.00 0.00 93 1013.2
20260906144103 45 0 0.0 0.0 0.00 0.00 0.00 93 1013.2
20260906142556 44 0 0.0 0.0 0.00 0.00 0.00 93 1013.4
20260906141050 45 0 0.0 0.0 0.00 0.00 0.00 92 1013.6
20260906134040 45 0 0.0 0.0 0.00 0.00 0.00 93 1013.8
20260906132536 45 0 0.0 0.0 0.00 0.00 0.00 93 1013.9
20260906131032 45 0 0.0 0.0 0.00 0.00 0.00 92 1014.2
20260906125528 45 0 0.0 0.0 0.00 0.00 0.00 92 1014.3
20260906124022 46 0 0.0 0.0 0.00 0.00 0.00 92 1014.4
20260906121014 46 0 0.0 0.0 0.00 0.00 0.00 92 1014.5
20260906115510 47 0 0.0 0.0 0.00 0.00 0.00 92 1014.6
20260906114004 47 0 0.0 0.0 0.00 0.00 0.00 92 1014.7
20260906110954 47 0 0.0 0.0 0.00 0.00 0.00 92 1015.0
20260906105448 47 0 0.0 0.0 0.00 0.00 0.00 92 1014.9
20260906102438 47 0 0.0 0.0 0.00 0.00 0.00 92 1015.0
20260906100934 47 0 0.0 0.0 0.00 0.00 0.00 91 1015.2
20260906095430 48 0 0.0 0.0 0.00 0.00 0.00 91 1015.3
20260906093926 48 0 0.0 0.0 0.00 0.00 0.00 91 1015.4
20260906092422 48 0 0.0 0.0 0.00 0.00 0.00 91 1015.4
20260906090917 49 0 0.0 0.0 0.00 0.00 0.00 92 1015.7
20260906083906 48 0 0.0 0.0 0.00 0.00 0.00 89 1015.9
20260906082402 49 0 0.0 0.0 0.00 0.00 0.00 89 1015.8
20260906080858 49 0 0.0 0.0 0.00 0.00 0.00 89 1015.7
20260906073850 50 0 0.0 0.0 0.00 0.00 0.00 88 1015.7
20260906072346 51 0 0.0 0.0 0.00 0.00 0.00 88 1015.7
20260906070841 51 0 0.0 0.0 0.00 0.00 0.00 87 1015.7
20260906065337 51 0 0.0 0.0 0.00 0.00 0.00 87 1015.6
20260906062330 52 0 0.0 0.0 0.00 0.00 0.00 86 1015.7
20260906060825 53 0 0.0 0.0 0.00 0.00 0.00 84 1015.5
20260906053816 54 0 0.0 0.0 0.00 0.00 0.00 83 1015.3
20260906052309 55 0 0.0 0.0 0.00 0.00 0.00 81 1015.3
20260906045300 57 0 0.0 0.0 0.00 0.00 0.00 78 1015.1
20260906043755 58 0 0.0 0.0 0.00 0.00 0.00 76 1015.1
20260906042251 59 0 0.0 5.0 0.00 0.00 0.00 72 1015.1
20260906040748 61 0 0.0 0.0 0.00 0.00 0.00 70 1015.0
20260906035243 62 0 0.0 6.0 0.00 0.00 0.00 67 1014.9
20260906033737 63 284 1.0 6.0 0.00 0.00 0.00 67 1014.9
20260906032234 64 0 0.0 9.0 0.00 0.00 0.00 64 1014.8
20260906025225 66 306 1.0 11.0 0.00 0.00 0.00 59 1014.7
20260906023722 66 342 1.0 10.0 0.00 0.00 0.00 58 1014.6
20260906022217 67 314 2.0 9.0 0.00 0.00 0.00 56 1014.5
20260906020714 67 339 3.0 10.0 0.00 0.00 0.00 56 1014.5
20260906015210 65 337 2.0 13.0 0.00 0.00 0.00 59 1014.5
20260906013704 63 0 0.0 11.0 0.00 0.00 0.00 62 1014.5
20260906012159 62 328 1.0 9.0 0.00 0.00 0.00 66 1014.6
20260906010653 63 321 3.0 9.0 0.00 0.00 0.00 66 1014.5
20260906005147 63 284 1.0 7.0 0.00 0.00 0.00 64 1014.5
20260906003644 63 332 2.0 11.0 0.00 0.00 0.00 63 1014.6
20260906002141 63 0 0.0 5.0 0.00 0.00 0.00 66 1014.5
20260906000636 63 0 0.0 10.0 0.00 0.00 0.00 63 1014.4
20260905235132 64 335 1.0 7.0 0.00 0.00 0.00 63 1014.5
20260905233626 65 0 0.0 5.0 0.00 0.00 0.00 59 1014.4
20260905232121 66 7 2.0 10.0 0.00 0.00 0.00 60 1014.3
20260905230618 65 318 2.0 13.0 0.00 0.00 0.00 61 1014.3
20260905225112 64 355 2.0 12.0 0.00 0.00 0.00 64 1014.4
20260905223608 64 0 0.0 10.0 0.00 0.00 0.00 64 1014.4
20260905222102 64 22 1.0 4.0 0.00 0.00 0.00 65 1014.4
20260905220556 64 0 0.0 0.0 0.00 0.00 0.00 63 1014.4
20260905215051 64 0 0.0 3.0 0.00 0.00 0.00 62 1014.2
20260905213548 63 0 0.0 3.0 0.00 0.00 0.00 69 1014.2
20260905212044 62 0 0.0 1.0 0.00 0.00 0.00 75 1014.5
20260905210540 62 329 1.0 3.0 0.00 0.00 0.00 73 1014.3
20260905205035 62 0 0.0 0.0 0.00 0.00 0.00 70 1014.1
20260905203529 63 0 0.0 0.0 0.00 0.00 0.00 69 1014.1
20260905202025 64 325 2.0 6.0 0.00 0.00 0.00 63 1013.8
20260905200522 63 0 0.0 1.0 0.00 0.00 0.00 62 1013.7
20260905195018 62 0 0.0 1.0 0.00 0.00 0.00 65 1013.6
20260905193512 62 0 0.0 1.0 0.00 0.00 0.00 70 1013.6
20260905192007 62 0 0.0 0.0 0.00 0.00 0.00 70 1013.5
20260905190505 61 0 0.0 0.0 0.00 0.00 0.00 77 1013.5
20260905185000 60 0 0.0 0.0 0.00 0.00 0.00 78 1013.5
20260905183454 60 0 0.0 0.0 0.00 0.00 0.00 76 1013.2
20260905180444 59 0 0.0 0.0 0.00 0.00 0.00 74 1013.1
20260905174937 59 0 0.0 5.0 0.00 0.00 0.00 75 1012.9